Regional Weather Roundup
Issued by NWS

Home | Current Version | Previous Version | Text Only | Print | Product List | Glossary On
Versions: 1 2 3 4 5 6 7 8 9 10 11 12 13 14 15 16 17 18 19 20 21 22 23 24 25 26 27 28 29 30 31 32 33 34 35 36 37 38 39 40 41 42 43 44 45 46 47 48 49 50
000
ASUS43 KMKX 251700
RWRWI

WISCONSIN REGIONAL WEATHER ROUNDUP
NATIONAL WEATHER SERVICE MILWAUKEE/SULLIVAN WI
1200 PM CDT WED APR 25 2018

NOTE: "FAIR" INDICATES FEW OR NO CLOUDS BELOW 12,000 FEET WITH NO
SIGNIFICANT WEATHER AND/OR OBSTRUCTIONS TO VISIBILITY.

WIZ001-002-006>008-014>016-023>028-251800-
NORTHWEST WISCONSIN

CITY           SKY/WX    TMP DP  RH WIND       PRES   REMARKS
SUPERIOR ARPT  FAIR      46  27  47 CALM      30.21F
ASHLAND        FAIR      46  25  43 CALM      30.20F
HAYWARD        FAIR      48  25  40 N7        30.18F
SIREN          FAIR      48  25  40 SE6       30.21F
CUMBERLAND     FAIR      43  27  52 CALM      30.21F
RICE LAKE      FAIR      46  29  52 NW3       30.21F
CHETEK         FAIR      45  27  50 N3        30.21S
LADYSMITH      FAIR      47  27  46 CALM      30.19F
EAU CLAIRE     FAIR      49  28  44 CALM      30.19F
MENOMONIE      FAIR      48  25  40 CALM      30.21F
NEW RICHMOND   FAIR      48  25  40 N5        30.22S
OSCEOLA        FAIR      47  25  41 CALM      30.24F
$$

WIZ003>005-009-010-017-018-251800-
NORTH CENTRAL WISCONSIN

CITY           SKY/WX    TMP DP  RH WIND       PRES   REMARKS
MANITOWISH WTR FAIR      40  24  53 NE5       30.16F
ARBOR VITAE    FAIR      42  28  56 NW9       30.15F
WOODRUFF       FAIR      42  28  56 NW9       30.15F
RHINELANDER    FAIR      44  26  49 N5        30.14F
EAGLE RIVER    FAIR      43  24  46 N8        30.13F
LAND O LAKES   FAIR      41  24  50 N8        30.15F
PHILLIPS       FAIR      43  26  51 CALM      30.16F
TOMAHAWK       FAIR      44  27  50 N5        30.16F
MEDFORD        FAIR      43  29  58 CALM      30.16F
MERRILL        FAIR      46  28  49 N10       30.15F
$$

WIZ029-030-035-036-043>047-251800-
CENTRAL WISCONSIN

CITY           SKY/WX    TMP DP  RH WIND       PRES   REMARKS
WAUSAU         FAIR      46  28  49 NW7       30.14F
MOSINEE        SUNNY     45  30  57 N7        30.16F
MARSHFIELD     FAIR      47  30  51 NW7       30.15F
STEVENS POINT  FAIR      44  26  50 NW7       30.16F
WAUPACA        FAIR      50  30  45 NE5       30.16F
WAUTOMA        NOT AVBL
WISC RAPIDS    FAIR      50  28  42 N6        30.16F
CAMP DOUGLAS   NOT AVBL
$$

WIZ011>013-019>022-031-037>040-048>050-251800-
NORTHEAST WISCONSIN

CITY           SKY/WX    TMP DP  RH WIND       PRES   REMARKS
ANTIGO         FAIR      41  30  65 NW7       30.15S
SHAWANO        FAIR      49  29  46 CALM      30.14F
OCONTO         FAIR      46  29  52 NW7       30.14F
STURGEON BAY   FAIR      42  28  57 N15       30.14F
GREEN BAY      FAIR      47  32  56 N8        30.14F
MANITOWOC      FAIR      46  30  53 NW8G17    30.13F
APPLETON       MOSUNNY   45  27  49 N14       30.13F
CLINTONVILLE   FAIR      47  27  46 N7        30.14F
OSHKOSH        FAIR      47  31  53 NE13      30.14F
$$

WIZ032>034-041-042-053>061-251800-
SOUTHWEST WISCONSIN

CITY           SKY/WX    TMP DP  RH WIND       PRES   REMARKS
LA CROSSE      FAIR      52  33  48 NW10      30.18F
SPARTA         FAIR      52  32  47 N3        30.18F
VIROQUA        FAIR      51  35  53 N7        30.15F
BOSCOBEL       FAIR      58  32  37 N8G16     30.15F
PRAIRIE DU CHI FAIR      55  31  39 NW14G20   30.15F
PLATTEVILLE    FAIR      55  35  47 N12       30.14F
$$

WIZ056-057-062-063-064-067-068-251800-
SOUTH CENTRAL WISCONSIN

CITY           SKY/WX    TMP DP  RH WIND       PRES   REMARKS
REEDSBURG      FAIR      52  32  47 N7        30.14F
BARABOO/DELLS  FAIR      51  28  41 CALM      30.15F
LONE ROCK      NOT AVBL
MINERAL POINT  FAIR      55  32  41 N9        30.14F
MADISON        FAIR      52  32  46 N7G21     30.13F
MIDDLETON      FAIR      54  31  41 NW8       30.15S
WATERTOWN      FAIR      49  32  51 N13G18    30.13S
MONROE         FAIR      52  30  43 N10       30.13S
JANESVILLE     MOSUNNY   55  30  38 N13       30.12F
$$

WIZ051-052-058>065-066-070>072-251800-
SOUTHEAST WISCONSIN

CITY           SKY/WX    TMP DP  RH WIND       PRES   REMARKS
MILWAUKEE      FAIR      47  32  56 NE17      30.12F
WAUKESHA       SUNNY     52  30  43 N10G17    30.12F
MILWAUKEE/TIMM SUNNY     52  27  37 N12G21    30.11F
RACINE         FAIR      47  31  53 NE20      30.13F
BURLINGTON     FAIR      53  30  41 NE9       30.11F
KENOSHA        FAIR      52  30  43 NE14G22   30.11F
FOND DU LAC    FAIR      47  31  53 NE12      30.14F
SHEBOYGAN      FAIR      50  33  52 N12       30.12F
WEST BEND      FAIR      50  30  46 N7G21     30.11F
JUNEAU         FAIR      47  32  55 N9        30.14F
$$

LSZ147-162-251800-
LAKE SUPERIOR

STATION/POSITION TIME  TEMP    WIND        PRES    WAVE
                       AIR SEA DIR/SP/G            HT/PER
                 (UTC) (F)     (DEG/KT/KT) (MB)    (FT/S)
DEVILS ISLAND    1600   36     300/  4/  5 1024.4F
SAXON HARBOR     1640   35     310/  3/  4 1023.0S
$$

LMZ867-665-643>646-251800-
LAKE MICHIGAN

STATION/POSITION TIME  TEMP    WIND        PRES    WAVE
                       AIR SEA DIR/SP/G            HT/PER
                 (UTC) (F)     (DEG/KT/KT) (MB)    (FT/S)
NORTHPORT PIER   1640   36                 1020.0F
KEWAUNEE LAKESHO 1630   45     360/ 11/ 16 1019.9R
SHEBOYGAN LAKESH 1600   39      30/  9/  9 1020.9S
PORT WASHINGTON  1630   43      40/ 12/ 17 1021.0F
MILWAUKEE LAKESH 1630   40      30/ 14/ 16   N/A
KENOSHA   LAKESH 1600   42                 1020.3
$$

TC  - TEMPERATURE IN CELSIUS
VSB - VISIBILITY IN STATUTE MILES
WCI - WIND CHILL INDEX
HX  - HEAT INDEX





USA.gov is the U.S. government's official web portal to all federal, state and local government web resources and services.